Time,TemperatureF,DewpointF,PressureIn,WindDirection,WindDirectionDegrees,WindSpeedMPH,WindSpeedGustMPH,Humidity,HourlyPrecipIn,Conditions,Clouds,dailyrainin,SoftwareType,DateUTC
2013-09-06 00:00:00,78.0,62.0,-100.00,North,3,1.0,-999.0,58,0.00,,,0.00,,2013-09-06 05:00:00,
2013-09-06 00:43:00,78.0,62.0,-100.00,North,3,1.0,-999.0,58,0.00,,,0.00,,2013-09-06 05:43:00,
2013-09-06 00:52:00,78.0,62.0,-100.00,North,3,1.0,-999.0,58,0.00,,,0.00,,2013-09-06 05:52:00,
2013-09-06 01:00:00,75.0,58.0,-100.00,SSE,152,2.0,-999.0,55,0.00,,,0.00,,2013-09-06 06:00:00,
2013-09-06 01:42:00,75.0,58.0,-100.00,SSE,152,2.0,-999.0,55,0.00,,,0.00,,2013-09-06 06:42:00,
2013-09-06 01:53:00,75.0,58.0,-100.00,SSE,152,2.0,-999.0,55,0.00,,,0.00,,2013-09-06 06:53:00,
2013-09-06 02:00:00,76.0,62.0,-100.00,NNE,15,2.0,-999.0,62,0.00,,,0.00,,2013-09-06 07:00:00,
2013-09-06 02:42:00,76.0,62.0,-100.00,NNE,15,2.0,-999.0,62,0.00,,,0.00,,2013-09-06 07:42:00,
2013-09-06 02:52:00,76.0,62.0,-100.00,NNE,15,2.0,-999.0,62,0.00,,,0.00,,2013-09-06 07:52:00,
2013-09-06 03:00:00,75.0,60.0,-100.00,ENE,70,1.0,-999.0,60,0.00,,,0.00,,2013-09-06 08:00:00,
2013-09-06 03:42:00,75.0,60.0,-100.00,ENE,70,1.0,-999.0,60,0.00,,,0.00,,2013-09-06 08:42:00,
2013-09-06 03:52:00,75.0,60.0,-100.00,ENE,70,1.0,-999.0,60,0.00,,,0.00,,2013-09-06 08:52:00,
2013-09-06 04:00:00,72.0,59.0,-100.00,South,170,3.0,-999.0,65,0.00,,,0.00,,2013-09-06 09:00:00,
2013-09-06 04:43:00,72.0,59.0,-100.00,South,170,3.0,-999.0,65,0.00,,,0.00,,2013-09-06 09:43:00,
2013-09-06 04:54:00,72.0,59.0,-100.00,South,170,3.0,-999.0,65,0.00,,,0.00,,2013-09-06 09:54:00,
2013-09-06 05:00:00,72.0,62.0,-100.00,ENE,72,2.0,-999.0,69,0.00,,,0.00,,2013-09-06 10:00:00,
2013-09-06 05:43:00,72.0,62.0,-100.00,ENE,72,2.0,-999.0,69,0.00,,,0.00,,2013-09-06 10:43:00,
2013-09-06 05:53:00,72.0,62.0,-100.00,ENE,72,2.0,-999.0,69,0.00,,,0.00,,2013-09-06 10:53:00,
2013-09-06 06:00:00,72.0,63.0,-100.00,NNE,22,1.0,-999.0,72,0.00,,,0.00,,2013-09-06 11:00:00,
2013-09-06 06:42:00,72.0,63.0,-100.00,NNE,22,1.0,-999.0,72,0.00,,,0.00,,2013-09-06 11:42:00,
2013-09-06 06:52:00,72.0,63.0,-100.00,NNE,22,1.0,-999.0,72,0.00,,,0.00,,2013-09-06 11:52:00,
2013-09-06 07:00:00,70.0,63.0,-100.00,North,4,5.0,-999.0,79,0.00,,,0.00,,2013-09-06 12:00:00,
2013-09-06 07:42:00,70.0,63.0,-100.00,North,4,5.0,-999.0,79,0.00,,,0.00,,2013-09-06 12:42:00,
2013-09-06 07:52:00,70.0,63.0,-100.00,North,4,5.0,-999.0,79,0.00,,,0.00,,2013-09-06 12:52:00,
2013-09-06 08:00:00,69.0,63.0,-100.00,North,9,6.0,-999.0,80,0.00,,,-99.99,,2013-09-06 13:00:00,
2013-09-06 08:42:00,69.0,63.0,-100.00,North,9,6.0,-999.0,80,0.00,,,-99.99,,2013-09-06 13:42:00,
2013-09-06 08:52:00,69.0,63.0,-100.00,North,9,6.0,-999.0,80,0.00,,,-99.99,,2013-09-06 13:52:00,
2013-09-06 09:00:00,74.0,65.0,-100.00,North,9,4.0,-999.0,73,0.00,,,0.00,,2013-09-06 14:00:00,
2013-09-06 09:42:00,74.0,65.0,-100.00,North,9,4.0,-999.0,73,0.00,,,0.00,,2013-09-06 14:42:00,
2013-09-06 09:52:00,74.0,65.0,-100.00,North,9,4.0,-999.0,73,0.00,,,0.00,,2013-09-06 14:52:00,
2013-09-06 10:00:00,83.0,66.0,-100.00,SSE,157,5.0,-999.0,56,0.00,,,0.00,,2013-09-06 15:00:00,
2013-09-06 10:43:00,83.0,66.0,-100.00,SSE,157,5.0,-999.0,56,0.00,,,0.00,,2013-09-06 15:43:00,
2013-09-06 10:53:00,83.0,66.0,-100.00,SSE,157,5.0,-999.0,56,0.00,,,0.00,,2013-09-06 15:53:00,
2013-09-06 11:00:00,85.0,66.0,-100.00,SSE,156,7.0,-999.0,53,0.00,,,0.00,,2013-09-06 16:00:00,
2013-09-06 11:43:00,85.0,66.0,-100.00,SSE,156,7.0,-999.0,53,0.00,,,0.00,,2013-09-06 16:43:00,
2013-09-06 11:53:00,85.0,66.0,-100.00,SSE,156,7.0,-999.0,53,0.00,,,0.00,,2013-09-06 16:53:00,
2013-09-06 12:00:00,89.0,65.0,-100.00,SSE,150,4.0,-999.0,45,0.00,,,0.00,,2013-09-06 17:00:00,
2013-09-06 12:43:00,89.0,65.0,-100.00,SSE,150,4.0,-999.0,45,0.00,,,0.00,,2013-09-06 17:43:00,
2013-09-06 12:53:00,89.0,65.0,-100.00,SSE,150,4.0,-999.0,45,0.00,,,0.00,,2013-09-06 17:53:00,
2013-09-06 13:00:00,92.0,64.0,-100.00,SSE,150,5.0,-999.0,39,0.00,,,0.00,,2013-09-06 18:00:00,
2013-09-06 13:42:00,92.0,64.0,-100.00,SSE,150,5.0,-999.0,39,0.00,,,0.00,,2013-09-06 18:42:00,
2013-09-06 13:52:00,92.0,64.0,-100.00,SSE,150,5.0,-999.0,39,0.00,,,0.00,,2013-09-06 18:52:00,
2013-09-06 14:00:00,95.0,62.0,-100.00,South,170,5.0,-999.0,34,0.00,,,0.00,,2013-09-06 19:00:00,
2013-09-06 14:43:00,95.0,62.0,-100.00,South,170,5.0,-999.0,34,0.00,,,0.00,,2013-09-06 19:43:00,
2013-09-06 14:52:00,95.0,62.0,-100.00,South,170,5.0,-999.0,34,0.00,,,0.00,,2013-09-06 19:52:00,
2013-09-06 15:00:00,95.0,60.0,-100.00,ESE,108,1.0,-999.0,31,0.00,,,0.00,,2013-09-06 20:00:00,
2013-09-06 15:42:00,95.0,60.0,-100.00,ESE,108,1.0,-999.0,31,0.00,,,0.00,,2013-09-06 20:42:00,
2013-09-06 15:52:00,95.0,60.0,-100.00,ESE,108,1.0,-999.0,31,0.00,,,0.00,,2013-09-06 20:52:00,
2013-09-06 16:00:00,95.0,58.0,-100.00,East,99,2.0,-999.0,29,0.00,,,0.00,,2013-09-06 21:00:00,
2013-09-06 16:43:00,95.0,58.0,-100.00,East,99,2.0,-999.0,29,0.00,,,0.00,,2013-09-06 21:43:00,
2013-09-06 16:54:00,95.0,58.0,-100.00,East,99,2.0,-999.0,29,0.00,,,0.00,,2013-09-06 21:54:00,
2013-09-06 17:00:00,97.0,59.0,-100.00,SSE,168,7.0,-999.0,29,0.00,,,0.00,,2013-09-06 22:00:00,
2013-09-06 17:44:00,97.0,59.0,-100.00,SSE,168,7.0,-999.0,29,0.00,,,0.00,,2013-09-06 22:44:00,
2013-09-06 17:54:00,97.0,59.0,-100.00,SSE,168,7.0,-999.0,29,0.00,,,0.00,,2013-09-06 22:54:00,
2013-09-06 18:00:00,95.0,59.0,-100.00,SSE,162,6.0,-999.0,30,0.00,,,0.00,,2013-09-06 23:00:00,
2013-09-06 18:43:00,95.0,59.0,-100.00,SSE,162,6.0,-999.0,30,0.00,,,0.00,,2013-09-06 23:43:00,
2013-09-06 18:52:00,95.0,59.0,-100.00,SSE,162,6.0,-999.0,30,0.00,,,0.00,,2013-09-06 23:52:00,
2013-09-06 19:00:00,92.0,59.0,-100.00,SSE,149,6.0,-999.0,33,0.00,,,0.00,,2013-09-07 00:00:00,
2013-09-06 19:42:00,92.0,59.0,-100.00,SSE,149,6.0,-999.0,33,0.00,,,0.00,,2013-09-07 00:42:00,
2013-09-06 19:52:00,92.0,59.0,-100.00,SSE,149,6.0,-999.0,33,0.00,,,0.00,,2013-09-07 00:52:00,
2013-09-06 20:00:00,87.0,60.0,-100.00,SSE,155,2.0,-999.0,41,0.00,,,0.00,,2013-09-07 01:00:00,
2013-09-06 20:42:00,87.0,60.0,-100.00,SSE,155,2.0,-999.0,41,0.00,,,0.00,,2013-09-07 01:42:00,
2013-09-06 20:53:00,87.0,60.0,-100.00,SSE,155,2.0,-999.0,41,0.00,,,0.00,,2013-09-07 01:53:00,
2013-09-06 21:00:00,83.0,61.0,-100.00,SE,145,3.0,-999.0,48,0.00,,,0.00,,2013-09-07 02:00:00,
2013-09-06 21:43:00,83.0,61.0,-100.00,SE,145,3.0,-999.0,48,0.00,,,0.00,,2013-09-07 02:43:00,
2013-09-06 21:52:00,83.0,61.0,-100.00,SE,145,3.0,-999.0,48,0.00,,,0.00,,2013-09-07 02:52:00,
2013-09-06 22:00:00,83.0,63.0,-100.00,ENE,68,0.0,-999.0,50,0.00,,,0.00,,2013-09-07 03:00:00,
2013-09-06 22:45:00,83.0,63.0,-100.00,ENE,68,0.0,-999.0,50,0.00,,,0.00,,2013-09-07 03:45:00,
2013-09-06 22:55:00,83.0,63.0,-100.00,ENE,68,0.0,-999.0,50,0.00,,,0.00,,2013-09-07 03:55:00,
2013-09-06 23:00:00,81.0,62.0,-100.00,SSE,167,1.0,-999.0,52,0.00,,,0.00,,2013-09-07 04:00:00,
2013-09-06 23:43:00,81.0,62.0,-100.00,SSE,167,1.0,-999.0,52,0.00,,,0.00,,2013-09-07 04:43:00,
2013-09-06 23:54:00,81.0,62.0,-100.00,SSE,167,1.0,-999.0,52,0.00,,,0.00,,2013-09-07 04:54:00,